CW0677 Weather Reports


Display with metric or nautical units.
time (UTC)temp
F
wind
direction
speed
MPH
gust
MPH
rain 1hr
in
rain 24hr
in
rain mn
in
humidity
%
barometer
mb
20260901034607 61 229 2.0 7.0 0.00 0.00 0.00 83 1012.6
20260901033107 61 253 1.0 7.0 0.00 0.00 0.00 82 1012.5
20260901031605 61 180 2.0 7.0 0.00 0.00 0.00 81 1012.5
20260901030104 62 205 2.0 7.0 0.00 0.00 0.00 80 1012.4
20260901024606 62 192 3.0 8.0 0.00 0.00 0.00 79 1012.3
20260901023107 63 250 4.0 10.0 0.00 0.00 0.00 77 1012.2
20260901021636 64 180 3.0 9.0 0.00 0.00 0.00 75 1012.1
20260901020114 65 265 5.0 14.0 0.00 0.00 0.00 74 1012.2
20260901014605 66 283 6.0 11.0 0.00 0.00 0.00 72 1012.0
20260901013107 67 255 7.0 13.0 0.00 0.00 0.00 70 1012.1
20260901011603 69 257 4.0 16.0 0.00 0.00 0.00 67 1012.0
20260901010101 69 215 4.0 12.0 0.00 0.00 0.00 67 1011.9
20260901004605 70 223 6.0 14.0 0.00 0.00 0.00 65 1011.9
20260901003124 71 272 4.0 16.0 0.00 0.00 0.00 64 1011.9
20260901001612 72 273 3.0 13.0 0.00 0.00 0.00 63 1011.8
20260901000116 73 273 3.0 9.0 0.00 0.00 0.00 61 1011.8
20260831234610 72 180 3.0 12.0 0.00 0.00 0.00 64 1011.8
20260831233102 72 240 2.0 10.0 0.00 0.00 0.00 63 1011.9
20260831231608 72 252 4.0 13.0 0.00 0.00 0.00 63 1012.0
20260831230107 72 232 5.0 12.0 0.00 0.00 0.00 63 1011.9
20260831224606 73 215 4.0 10.0 0.00 0.00 0.00 63 1011.8
20260831223110 72 310 4.0 10.0 0.00 0.00 0.00 64 1012.3
20260831221603 72 130 4.0 11.0 0.00 0.00 0.00 63 1012.4
20260831220117 72 205 4.0 11.0 0.00 0.00 0.00 63 1012.5
20260831214606 71 159 4.0 9.0 0.00 0.00 0.00 63 1012.7
20260831213109 71 213 6.0 14.0 0.00 0.00 0.00 63 1012.8
20260831211612 71 236 8.0 13.0 0.00 0.00 0.00 65 1013.0
20260831210104 70 246 6.0 12.0 0.00 0.00 0.00 66 1013.1
20260831204608 68 188 3.0 10.0 0.00 0.00 0.00 68 1013.1
20260831203103 68 185 3.0 9.0 0.00 0.00 0.00 69 1013.3
20260831201604 67 285 3.0 9.0 0.00 0.00 0.00 71 1013.4
20260831194636 65 175 2.0 6.0 0.00 0.00 0.00 75 1013.8
20260831193106 63 220 4.0 8.0 0.00 0.00 0.00 78 1013.8
20260831191605 61 202 2.0 6.0 0.00 0.00 0.00 80 1013.9
20260831190120 61 177 1.0 7.0 0.00 0.00 0.00 80 1014.0
20260831184634 60 177 2.0 4.0 0.00 0.00 0.00 81 1014.1
20260831183108 59 222 2.0 7.0 0.00 0.00 0.00 82 1014.2
20260831181606 59 239 2.0 6.0 0.00 0.00 0.00 82 1014.1
20260831180112 59 254 2.0 6.0 0.00 0.00 0.00 83 1014.1
20260831174608 58 254 2.0 4.0 0.00 0.00 0.00 84 1013.9
20260831173106 58 213 1.0 6.0 0.00 0.00 0.00 85 1013.9
20260831171606 57 92 0.0 3.0 0.00 0.00 0.00 85 1013.8
20260831164603 56 335 0.0 2.0 0.00 0.00 0.00 86 1013.6
20260831163104 56 114 1.0 5.0 0.00 0.00 0.00 87 1013.7
20260831161606 56 0 1.0 4.0 0.00 0.00 0.00 88 1013.5
20260831160100 55 157 2.0 5.0 0.00 0.00 0.00 88 1013.4
20260831154632 55 0 0.0 5.0 0.00 0.00 0.00 89 1013.4
20260831153107 55 130 0.0 5.0 0.00 0.00 0.00 89 1013.3
20260831151610 55 158 2.0 5.0 0.00 0.00 0.00 89 1013.2
20260831150106 55 230 0.0 4.0 0.00 0.00 0.00 89 1013.2
20260831144636 55 111 1.0 5.0 0.00 0.00 0.00 89 1013.0
20260831143107 55 202 2.0 7.0 0.00 0.00 0.00 90 1012.7
20260831141601 55 159 2.0 5.0 0.00 0.00 0.00 91 1012.5
20260831140059 54 190 1.0 4.0 0.00 0.00 0.00 92 1012.4
20260831134605 54 134 1.0 4.0 0.00 0.00 0.00 92 1012.4
20260831133107 54 0 0.0 0.0 0.00 0.00 0.00 92 1012.2
20260831131601 54 0 0.0 0.0 0.00 0.00 0.00 92 1012.3
20260831130112 54 0 0.0 0.0 0.00 0.00 0.00 92 1012.3
20260831124602 54 0 0.0 0.0 0.00 0.00 0.00 92 1012.2
20260831123103 54 0 0.0 0.0 0.00 0.00 0.00 92 1012.2
20260831121559 53 0 0.0 0.0 0.00 0.00 0.00 92 1012.3
20260831120108 53 0 0.0 1.0 0.00 0.00 0.00 92 1012.3
20260831114610 53 0 0.0 1.0 0.00 0.00 0.00 92 1012.2
20260831113106 52 0 0.0 3.0 0.00 0.00 0.00 92 1012.1
20260831111616 52 299 0.0 3.0 0.00 0.00 0.00 91 1012.1
20260831110141 52 0 0.0 0.0 0.00 0.00 0.00 91 1012.2
20260831104602 52 0 0.0 0.0 0.00 0.00 0.00 91 1012.2
20260831103107 52 0 0.0 0.0 0.00 0.00 0.00 91 1012.0
20260831101605 53 0 0.0 1.0 0.00 0.00 0.00 90 1011.9
20260831100108 53 314 0.0 3.0 0.00 0.00 0.00 90 1011.8
20260831094605 53 0 0.0 0.0 0.00 0.00 0.00 90 1011.6
20260831093104 53 0 0.0 0.0 0.00 0.00 0.00 90 1011.5
20260831091604 54 0 0.0 0.0 0.00 0.00 0.00 90 1011.6
20260831090105 54 0 0.0 0.0 0.00 0.00 0.00 89 1011.6
20260831084607 54 0 0.0 0.0 0.00 0.00 0.00 89 1011.8
20260831083104 54 0 0.0 0.0 0.00 0.00 0.00 89 1012.0
20260831081633 54 0 0.0 0.0 0.00 0.00 0.00 89 1011.8
20260831080107 55 0 0.0 0.0 0.00 0.00 0.00 89 1011.9
20260831074606 55 0 0.0 2.0 0.00 0.00 0.00 88 1012.1
20260831073200 55 250 0.0 4.0 0.00 0.00 0.00 88 1012.2
20260831071559 55 238 1.0 4.0 0.00 0.00 0.00 88 1012.1
20260831070108 56 0 0.0 4.0 0.00 0.00 0.00 87 1012.1
20260831064611 56 215 0.0 5.0 0.00 0.00 0.00 87 1012.0
20260831063105 56 138 0.0 4.0 0.00 0.00 0.00 87 1011.9
20260831061608 56 209 1.0 4.0 0.00 0.00 0.00 87 1011.9
20260831060116 56 200 2.0 9.0 0.00 0.00 0.00 87 1012.0
20260831054614 56 224 2.0 6.0 0.00 0.00 0.00 86 1011.8
20260831053110 56 192 1.0 6.0 0.00 0.00 0.00 86 1011.8
20260831051602 56 171 2.0 8.0 0.00 0.00 0.00 86 1011.7
20260831050143 57 194 3.0 8.0 0.00 0.00 0.00 85 1011.9
20260831044606 57 175 3.0 12.0 0.00 0.00 0.00 84 1011.9
20260831043105 57 221 3.0 11.0 0.00 0.00 0.00 83 1011.8
20260831041607 58 233 2.0 9.0 0.00 0.00 0.00 82 1011.8
20260831040104 59 167 3.0 9.0 0.00 0.00 0.00 81 1011.6